Средняя Олёкма

Россия / Забайкальский край     55°25′28″N   120°32′59″E
темп.,
°C
ветер,
м/с
пор.,
м/с
влажн.,
%
обл.,
%
осадки,
мм/ч
давл.,
гПа
погр.,
м
11 мая, вт
вт1100:00+2всв1192100 0.8 101111
03:00+2св229239 0.9 101145
06:00+1всв1194100 0.1 101241
09:00+2св1294100 1.8 1011258
12:00+3всв2395100 4.4 1010305
15:00+4в1395100 4.8 1009305
18:00+6в237948 0.1 1008628
21:00+2в119498 0.1 100921
12 мая, ср
ср1200:00+1ссв2196100 0.0 100827
03:00−1ссв1197100 0.0 100820
06:000ссв2392100 0.0 100781
09:00+4ссв3779100 0.0 1006541
12:00+4ссв3784100 0.9 1006819
15:00+3с3795100 4.0 1007605
18:00+2с2698100 3.1 1007398
21:00+1с2998100 6.3 1008691
13 мая, чт
чт1300:000с1499100 2.1 1008248
03:000сз1299100 3.1 100798
06:000ссз1399100 1.1 1007208
09:00+1ссз1399100 3.3 1007189
12:00+2с2498100 2.6 1006313
15:00+3ссв2598100 4.7 1007413
18:00+3с2599100 1.1 1008484
21:00+1ссз14100100 2.1 1009308
14 мая, пт
пт1400:00+1сз13100100 0.5 1009196
03:00−1с1398100 0.6 100971
06:00+1ссз1294100 0.1 1009102
09:00+4ссв31080100 0.6 10091278
12:00+7ссв4972100 0.2 10091418
15:00+8ссв586380 0.2 10081636
18:00+8ссв47645 0.0 10101377
21:00+1с22850 0.0 101210
15 мая, сб
сб1500:00−2сз11880 0.0 101413
03:00−3сз11893 0.0 101411
06:00−1зсз11822 0.0 101426
09:00+7зсз12550 0.0 1012500
12:00+12сз13395 0.0 10091843
15:00+14зюз123418 0.0 10072094
18:00+13юв12375 0.0 10061404
21:00+5вюв118082 0.0 100710